EW4792 Weather Reports


Display with metric or nautical units.
time (UTC)temp
F
wind
direction
speed
MPH
gust
MPH
rain 1hr
in
rain 24hr
in
rain mn
in
humidity
%
barometer
mb
20260508182207 70 208 0.0 5.0 0.00 0.00 0.00 87 1012.6
20260508181637 70 208 3.0 5.0 0.00 0.00 0.00 87 1012.8
20260508181118 70 203 2.0 6.0 0.00 0.00 0.00 87 1012.9
20260508180700 70 203 4.0 6.0 0.00 0.00 0.00 87 1012.9
20260508175620 69 195 4.0 7.0 0.00 0.00 0.00 87 1013.1
20260508175124 69 186 2.0 8.0 0.00 0.00 0.00 87 1013.3
20260508174705 69 132 6.0 8.0 0.00 0.00 0.00 88 1013.3
20260508174148 69 174 3.0 8.0 0.00 0.00 0.00 88 1013.2
20260508173642 68 153 4.0 6.0 0.00 0.00 0.00 88 1013.3
20260508173138 68 180 1.0 4.0 0.00 0.00 0.00 88 1013.4
20260508172634 67 180 0.0 5.0 0.00 0.00 0.00 88 1013.3
20260508172134 67 180 3.0 5.0 0.00 0.00 0.00 88 1013.3
20260508171630 67 180 2.0 5.0 0.00 0.00 0.00 88 1013.4
20260508171126 67 180 3.0 6.0 0.00 0.00 0.00 88 1013.3
20260508170731 66 180 4.0 6.0 0.00 0.00 0.00 88 1013.4
20260508170203 66 195 4.0 5.0 0.00 0.00 0.00 88 1013.4
20260508165213 67 247 4.0 5.0 0.00 0.00 0.00 88 1013.4
20260508164707 66 255 2.0 4.0 0.00 0.00 0.00 88 1013.5
20260508164204 66 257 2.0 4.0 0.00 0.00 0.00 88 1013.5
20260508163613 66 257 2.0 6.0 0.00 0.00 0.00 88 1013.7
20260508163205 66 257 4.0 6.0 0.00 0.00 0.00 88 1013.8
20260508162702 66 261 5.0 6.0 0.00 0.00 0.00 88 1013.8
20260508162152 66 282 2.0 7.0 0.00 0.00 0.00 88 1013.9
20260508161648 66 340 2.0 7.0 0.00 0.00 0.00 88 1013.8
20260508161141 66 300 2.0 4.0 0.00 0.00 0.00 88 1013.9
20260508160209 65 341 4.0 7.0 0.00 0.00 0.00 89 1014.1
20260508155702 65 341 4.0 6.0 0.00 0.00 0.00 88 1014.2
20260508154710 64 333 0.0 5.0 0.00 0.00 0.00 88 1014.5
20260508154205 64 332 2.0 5.0 0.00 0.00 0.00 88 1014.7
20260508153657 64 315 2.0 5.0 0.00 0.00 0.00 89 1014.8
20260508153155 64 51 0.0 5.0 0.00 0.00 0.00 88 1014.8
20260508152655 63 51 1.0 5.0 0.00 0.00 0.00 88 1014.7
20260508152149 63 354 2.0 5.0 0.00 0.00 0.00 88 1014.7
20260508151649 63 351 2.0 6.0 0.00 0.00 0.00 88 1014.9
20260508151130 63 359 2.0 6.0 0.00 0.00 0.00 88 1014.8
20260508150631 63 326 2.0 4.0 0.00 0.00 0.00 88 1014.9
20260508150127 63 323 2.0 4.0 0.00 0.00 0.00 88 1014.9
20260508145629 63 330 1.0 5.0 0.00 0.00 0.00 88 1014.9
20260508145144 63 342 2.0 5.0 0.00 0.00 0.00 88 1015.0
20260508144626 62 340 1.0 4.0 0.00 0.00 0.00 87 1014.9
20260508144134 62 330 1.0 4.0 0.00 0.00 0.00 87 1014.9
20260508143628 62 327 1.0 2.0 0.00 0.00 0.00 87 1015.2
20260508143125 62 327 0.0 1.0 0.00 0.00 0.00 87 1015.0
20260508142643 62 327 0.0 0.0 0.00 0.00 0.00 87 1015.1
20260508142126 62 327 0.0 1.0 0.00 0.00 0.00 87 1015.2
20260508141622 62 327 0.0 1.0 0.00 0.00 0.00 87 1015.0
20260508141118 62 73 0.0 1.0 0.00 0.00 0.00 87 1014.9
20260508140627 62 73 0.0 2.0 0.00 0.00 0.00 87 1014.9
20260508140141 62 73 0.0 2.0 0.00 0.00 0.00 87 1014.9
20260508135654 62 73 0.0 1.0 0.00 0.00 0.00 87 1015.0
20260508135208 62 73 0.0 2.0 0.00 0.00 0.00 86 1014.8
20260508134702 62 73 0.0 2.0 0.00 0.00 0.00 86 1014.9
20260508134158 62 73 0.0 4.0 0.00 0.00 0.00 86 1014.7
20260508133616 62 73 1.0 4.0 0.00 0.00 0.00 86 1014.7
20260508133134 62 51 0.0 2.0 0.00 0.00 0.00 86 1014.7
20260508132717 62 49 0.0 2.0 0.00 0.00 0.00 86 1014.8
20260508132146 62 324 0.0 1.0 0.00 0.00 0.00 86 1014.9
20260508131644 62 10 0.0 1.0 0.00 0.00 0.00 86 1014.8
20260508131138 62 10 0.0 1.0 0.00 0.00 0.00 86 1015.0
20260508130651 62 10 0.0 1.0 0.00 0.00 0.00 86 1015.1
20260508130146 62 10 0.0 1.0 0.00 0.00 0.00 86 1014.9
20260508125657 62 10 0.0 4.0 0.00 0.00 0.00 86 1015.0
20260508125140 62 10 1.0 3.0 0.00 0.00 0.00 86 1014.9
20260508124621 62 10 0.0 2.0 0.00 0.00 0.00 86 1015.2
20260508124122 62 10 0.0 4.0 0.00 0.00 0.00 86 1015.1
20260508123647 62 330 1.0 4.0 0.00 0.00 0.00 86 1015.3
20260508123124 62 332 0.0 2.0 0.00 0.00 0.00 86 1015.3
20260508122629 62 328 0.0 2.0 0.00 0.00 0.00 86 1015.2
20260508122208 62 327 0.0 4.0 0.00 0.00 0.00 86 1015.1
20260508121659 62 327 1.0 5.0 0.00 0.00 0.00 85 1015.2
20260508121137 62 32 2.0 5.0 0.00 0.00 0.00 85 1015.0
20260508120634 62 53 0.0 6.0 0.00 0.00 0.00 85 1014.9
20260508120211 62 342 2.0 6.0 0.00 0.00 0.00 85 1014.7
20260508115701 62 300 1.0 4.0 0.00 0.00 0.00 85 1015.1
20260508115122 62 340 1.0 3.0 0.00 0.00 0.00 85 1014.5
20260508114724 62 348 1.0 3.0 0.00 0.00 0.00 85 1014.7
20260508113713 62 98 3.0 6.0 0.00 0.00 0.00 84 1015.0
20260508113148 62 97 0.0 5.0 0.00 0.00 0.00 84 1015.3
20260508112645 62 97 1.0 6.0 0.00 0.00 0.00 84 1015.3
20260508111707 63 101 3.0 7.0 0.00 0.00 0.00 82 1015.4
20260508111145 63 55 2.0 7.0 0.00 0.00 0.00 81 1015.6
20260508110622 63 69 2.0 5.0 0.00 0.00 0.00 80 1015.9
20260508110125 64 57 1.0 4.0 0.00 0.00 0.00 80 1015.9
20260508105629 64 342 0.0 1.0 0.00 0.00 0.00 80 1015.8
20260508105127 64 342 0.0 6.0 0.00 0.00 0.00 80 1015.8
20260508104623 64 341 2.0 6.0 0.00 0.00 0.00 80 1015.8
20260508104128 64 10 4.0 6.0 0.00 0.00 0.00 79 1015.5
20260508103626 64 20 1.0 5.0 0.00 0.00 0.00 79 1015.3
20260508103124 63 33 2.0 6.0 0.00 0.00 0.00 79 1015.0
20260508102626 63 32 4.0 6.0 0.00 0.00 0.00 79 1015.0
20260508102122 63 10 2.0 6.0 0.00 0.00 0.00 79 1014.9
20260508101642 63 338 2.0 5.0 0.00 0.00 0.00 79 1015.0
20260508101140 63 359 1.0 4.0 0.00 0.00 0.00 79 1015.1
20260508100211 63 44 0.0 5.0 0.00 0.00 0.00 78 1014.8
20260508095644 63 20 0.0 6.0 0.00 0.00 0.00 78 1014.6
20260508095155 63 336 0.0 7.0 0.00 0.00 0.00 78 1014.7
20260508094633 63 15 3.0 6.0 0.00 0.00 0.00 79 1014.9
20260508094208 63 351 2.0 5.0 0.00 0.00 0.00 78 1014.9
20260508093643 64 351 1.0 5.0 0.00 0.00 0.00 78 1014.8
20260508093223 64 124 2.0 7.0 0.00 0.00 0.00 79 1014.6
20260508092640 64 99 3.0 6.0 0.00 0.00 0.00 78 1014.8
20260508091707 64 105 2.0 7.0 0.00 0.00 0.00 78 1015.1
20260508090619 64 334 4.0 8.0 0.00 0.00 0.00 78 1015.3
20260508090136 64 10 0.0 4.0 0.00 0.00 0.00 78 1015.0
20260508085614 64 10 1.0 3.0 0.00 0.00 0.00 77 1015.2
20260508085207 64 10 1.0 7.0 0.00 0.00 0.00 77 1015.1
20260508084700 64 340 1.0 7.0 0.00 0.00 0.00 77 1015.2
20260508084140 64 320 3.0 5.0 0.00 0.00 0.00 77 1015.3
20260508083641 64 2 0.0 2.0 0.00 0.00 0.00 77 1015.0
20260508082708 64 349 1.0 5.0 0.00 0.00 0.00 77 1015.2
20260508082126 64 327 2.0 5.0 0.00 0.00 0.00 77 1015.3
20260508081631 64 350 2.0 5.0 0.00 0.00 0.00 77 1015.1
20260508081130 64 3 0.0 2.0 0.00 0.00 0.00 77 1015.2
20260508080727 64 3 0.0 2.0 0.00 0.00 0.00 77 1015.1
20260508080154 64 3 0.0 4.0 0.00 0.00 0.00 76 1015.4
20260508075647 64 10 1.0 4.0 0.00 0.00 0.00 76 1015.4
20260508075140 64 43 0.0 2.0 0.00 0.00 0.00 76 1015.4
20260508074207 64 313 0.0 0.0 0.00 0.00 0.00 76 1015.6
20260508073652 64 313 0.0 1.0 0.00 0.00 0.00 76 1015.6
20260508073150 64 313 0.0 1.0 0.00 0.00 0.00 76 1015.6
20260508072648 64 313 0.0 1.0 0.00 0.00 0.00 75 1015.9
20260508072144 64 313 0.0 1.0 0.00 0.00 0.00 76 1015.9
20260508071641 64 313 0.0 1.0 0.00 0.00 0.00 76 1015.9
20260508071141 64 313 0.0 1.0 0.00 0.00 0.00 76 1016.0
20260508070613 64 313 0.0 2.0 0.00 0.00 0.00 76 1016.0
20260508070115 64 313 0.0 2.0 0.00 0.00 0.00 76 1015.7
20260508065629 64 313 1.0 5.0 0.00 0.00 0.00 76 1015.8
20260508065140 64 353 2.0 5.0 0.00 0.00 0.00 76 1015.5
20260508064613 64 337 0.0 5.0 0.00 0.00 0.00 76 1015.4
20260508064125 64 82 0.0 5.0 0.00 0.00 0.00 76 1015.3
20260508063619 64 91 4.0 5.0 0.00 0.00 0.00 76 1015.2
20260508063132 64 85 3.0 5.0 0.00 0.00 0.00 76 1015.3
20260508062645 64 105 3.0 5.0 0.00 0.00 0.00 76 1015.3
20260508062133 64 106 1.0 2.0 0.00 0.00 0.00 75 1015.6
20260508061626 64 106 1.0 2.0 0.00 0.00 0.00 75 1015.9
20260508061119 64 106 0.0 4.0 0.00 0.00 0.00 75 1016.1
20260508060632 64 106 0.0 4.0 0.00 0.00 0.00 75 1016.1
20260508060125 64 106 1.0 2.0 0.00 0.00 0.00 75 1016.0
20260508055618 64 106 0.0 1.0 0.00 0.00 0.00 75 1016.1
20260508055132 64 106 0.0 2.0 0.00 0.00 0.00 75 1016.0
20260508054626 64 106 1.0 4.0 0.00 0.00 0.00 75 1016.1
20260508054119 64 106 2.0 4.0 0.00 0.00 0.00 75 1016.1
20260508053614 64 3 0.0 4.0 0.00 0.00 0.00 75 1016.1
20260508053126 64 359 1.0 2.0 0.00 0.00 0.00 75 1016.2
20260508052621 64 359 1.0 5.0 0.00 0.00 0.00 75 1016.2
20260508052113 64 357 2.0 5.0 0.00 0.00 0.00 75 1016.4
20260508051627 64 336 0.0 8.0 0.00 0.00 0.00 75 1016.3
20260508051120 64 324 3.0 9.0 0.00 0.00 0.00 75 1016.4
20260508050615 64 326 3.0 10.0 0.00 0.00 0.00 75 1016.5
20260508050126 64 354 6.0 10.0 0.00 0.00 0.00 75 1016.5
20260508045731 64 339 6.0 9.0 0.00 0.00 0.00 75 1016.6
20260508045203 64 348 2.0 8.0 0.00 0.00 0.00 74 1016.4
20260508044207 64 337 4.0 6.0 0.00 0.00 0.00 75 1016.3
20260508043621 64 39 1.0 7.0 0.00 0.00 0.00 74 1015.6
20260508043116 64 88 2.0 7.0 0.00 0.00 0.00 74 1015.2
20260508042612 64 105 1.0 8.0 0.00 0.00 0.00 74 1015.1
20260508042215 64 105 3.0 9.0 0.00 0.00 0.00 75 1015.0
20260508041653 64 103 6.0 9.0 0.00 0.00 0.00 75 1014.9
20260508041128 64 97 6.0 9.0 0.00 0.00 0.00 75 1015.0
20260508040623 65 92 5.0 8.0 0.00 0.00 0.00 74 1015.1
20260508040212 65 94 5.0 8.0 0.00 0.00 0.00 74 1015.4
20260508035624 65 99 5.0 8.0 0.00 0.00 0.00 74 1015.5
20260508035121 65 84 6.0 8.0 0.00 0.00 0.00 73 1015.8
20260508034707 65 70 1.0 5.0 0.00 0.00 0.00 73 1016.3
20260508034201 65 66 0.0 4.0 0.00 0.00 0.00 73 1016.4
20260508033655 66 66 1.0 3.0 0.00 0.00 0.00 73 1016.6
20260508033149 66 51 1.0 4.0 0.00 0.00 0.00 73 1016.4
20260508032644 66 43 0.0 4.0 0.00 0.00 0.00 73 1016.4
20260508032127 66 41 1.0 3.0 0.00 0.00 0.00 73 1016.7
20260508031623 66 15 0.0 6.0 0.00 0.00 0.00 73 1016.9
20260508031227 66 10 0.0 6.0 0.00 0.00 0.00 73 1017.0
20260508030703 66 313 1.0 6.0 0.00 0.00 0.00 73 1017.0
20260508030159 66 353 2.0 6.0 0.00 0.00 0.00 73 1016.9
20260508025654 66 357 3.0 6.0 0.00 0.00 0.00 73 1017.0
20260508025151 66 334 1.0 5.0 0.00 0.00 0.00 73 1016.7
20260508024651 65 342 2.0 5.0 0.00 0.00 0.00 73 1017.0
20260508024147 66 342 3.0 5.0 0.00 0.00 0.00 73 1016.9
20260508023614 66 342 1.0 5.0 0.00 0.00 0.00 73 1016.7
20260508023145 66 1 2.0 5.0 0.00 0.00 0.00 73 1016.7
20260508022640 66 103 2.0 13.0 0.00 0.00 0.00 72 1016.1
20260508022140 66 134 6.0 13.0 0.00 0.00 0.00 73 1015.5
20260508021649 66 143 9.0 12.0 0.00 0.00 0.00 72 1015.0
20260508021212 66 120 9.0 11.0 0.00 0.00 0.00 72 1015.0
20260508020708 66 133 4.0 8.0 0.00 0.00 0.00 71 1015.3
20260508020201 66 72 2.0 7.0 0.00 0.00 0.00 71 1015.6
20260508015657 66 127 5.0 10.0 0.00 0.00 0.00 71 1015.2
20260508015147 66 120 5.0 14.0 0.00 0.00 0.00 71 1014.9
20260508014645 66 84 9.0 18.0 0.00 0.00 0.00 72 1014.3
20260508013710 67 107 8.0 12.0 0.00 0.00 0.00 70 1014.4
20260508013148 67 41 3.0 9.0 0.00 0.00 0.00 70 1014.9
20260508012646 67 73 4.0 10.0 0.00 0.00 0.00 69 1014.9
20260508012143 67 37 4.0 9.0 0.00 0.00 0.00 69 1014.9
20260508011638 67 101 4.0 12.0 0.00 0.00 0.00 69 1014.8
20260508011135 67 15 8.0 12.0 0.00 0.00 0.00 69 1015.1
20260508010622 67 348 4.0 15.0 0.00 0.00 0.00 69 1015.0
20260508010202 67 350 9.0 15.0 0.00 0.00 0.00 69 1014.8
20260508005205 67 66 12.0 23.0 0.00 0.00 0.00 69 1013.2
20260508004659 67 121 15.0 23.0 0.00 0.00 0.00 71 1012.3
20260508004153 67 117 14.0 20.0 0.00 0.00 0.00 70 1012.8
20260508003635 67 120 13.0 16.0 0.00 0.00 0.00 69 1013.5
20260508003129 68 124 12.0 16.0 0.00 0.00 0.00 69 1013.9
20260508002625 68 118 9.0 11.0 0.00 0.00 0.00 69 1014.2
20260508002121 68 132 8.0 11.0 0.00 0.00 0.00 68 1014.5
20260508001720 68 110 6.0 8.0 0.00 0.00 0.00 68 1014.9
20260508001147 68 95 3.0 7.0 0.00 0.00 0.00 68 1015.4
20260508000621 68 57 3.0 8.0 0.00 0.00 0.00 68 1015.5
20260508000134 68 86 6.0 8.0 0.00 0.00 0.00 68 1015.4
20260507235620 68 105 5.0 7.0 0.00 0.00 0.00 66 1015.8
20260507235123 68 35 3.0 7.0 0.00 0.00 0.00 66 1016.1
20260507234630 68 68 3.0 9.0 0.00 0.00 0.00 66 1016.0
20260507234125 68 66 5.0 9.0 0.00 0.00 0.00 66 1016.0
20260507233624 69 51 3.0 6.0 0.00 0.00 0.00 66 1016.2
20260507233130 69 75 3.0 6.0 0.00 0.00 0.00 65 1016.4
20260507232628 69 99 3.0 6.0 0.00 0.00 0.00 65 1016.3
20260507232125 69 70 1.0 7.0 0.00 0.00 0.00 65 1016.3
20260507231628 69 80 3.0 8.0 0.00 0.00 0.00 65 1016.2
20260507231130 69 355 5.0 11.0 0.00 0.00 0.00 65 1016.4
20260507230625 69 42 4.0 11.0 0.00 0.00 0.00 65 1016.3
20260507230140 69 78 6.0 11.0 0.00 0.00 0.00 65 1016.5
20260507225622 69 102 6.0 9.0 0.00 0.00 0.00 65 1016.5
20260507225118 68 1 3.0 9.0 0.00 0.00 0.00 65 1016.6
20260507224616 68 84 6.0 12.0 0.00 0.00 0.00 65 1016.8
20260507224134 68 86 6.0 12.0 0.00 0.00 0.00 65 1016.7
20260507223633 68 66 6.0 10.0 0.00 0.00 0.00 66 1016.8
20260507223154 68 74 6.0 10.0 0.00 0.00 0.00 67 1016.9
20260507222709 68 47 5.0 13.0 0.00 0.00 0.00 68 1016.5
20260507222201 68 74 7.0 13.0 0.00 0.00 0.00 67 1016.3
20260507221643 68 85 5.0 9.0 0.00 0.00 0.00 67 1016.5
20260507221143 68 59 3.0 9.0 0.00 0.00 0.00 68 1016.7
20260507220658 68 39 5.0 14.0 0.00 0.00 0.00 67 1016.7
20260507220134 68 68 6.0 14.0 0.00 0.00 0.00 66 1017.0
20260507215632 68 34 6.0 14.0 0.00 0.00 0.00 67 1016.9
20260507215232 68 348 6.0 10.0 0.00 0.00 0.00 68 1016.9
20260507214620 68 15 3.0 11.0 0.00 0.00 0.00 68 1016.5
20260507214209 68 56 6.0 11.0 0.00 0.00 0.00 67 1016.7
20260507213629 68 39 2.0 13.0 0.00 0.00 0.00 68 1016.9
20260507213113 68 101 7.0 13.0 0.00 0.00 0.00 67 1016.9
20260507212612 68 38 8.0 12.0 0.00 0.00 0.00 68 1017.1
20260507212206 68 340 8.0 11.0 0.00 0.00 0.00 68 1017.3
20260507211700 68 43 5.0 12.0 0.00 0.00 0.00 68 1017.0
20260507211155 68 15 4.0 12.0 0.00 0.00 0.00 69 1016.7
20260507210650 68 99 9.0 12.0 0.00 0.00 0.00 69 1016.7
20260507210144 68 76 7.0 12.0 0.00 0.00 0.00 69 1016.8
20260507205655 68 92 8.0 13.0 0.00 0.00 0.00 69 1017.1
20260507205146 68 32 9.0 15.0 0.00 0.00 0.00 69 1017.2
20260507204653 68 31 7.0 16.0 0.00 0.00 0.00 69 1017.1
20260507204147 68 53 8.0 19.0 0.00 0.00 0.00 69 1017.6
20260507203644 68 81 9.0 19.0 0.00 0.00 0.00 70 1016.8
20260507202712 68 32 7.0 18.0 0.00 0.00 0.00 71 1016.7
20260507202121 67 30 8.0 22.0 0.00 0.00 0.00 71 1016.9
20260507201640 68 10 9.0 22.0 0.00 0.00 0.00 71 1016.6
20260507201135 68 26 5.0 13.0 0.00 0.00 0.00 73 1016.6
20260507200628 68 58 8.0 15.0 0.00 0.00 0.00 73 1016.6
20260507200207 68 360 9.0 15.0 0.00 0.00 0.00 73 1016.9
20260507195718 67 10 8.0 15.0 0.00 0.00 0.00 73 1017.1
20260507195149 67 30 8.0 18.0 0.00 0.00 0.00 75 1017.0
20260507194700 67 102 9.0 18.0 0.00 0.00 0.00 75 1017.1
20260507193714 66 10 6.0 20.0 0.00 0.00 0.00 78 1017.3
20260507193146 66 28 10.0 20.0 0.00 0.00 0.00 77 1017.1
20260507192732 65 36 9.0 14.0 0.00 0.00 0.00 80 1017.0
20260507192202 65 48 6.0 13.0 0.00 0.00 0.00 81 1017.3
20260507191638 65 118 6.0 16.0 0.00 0.00 0.00 82 1017.0
20260507191146 64 95 7.0 16.0 0.00 0.00 0.00 83 1017.4
20260507190620 64 113 6.0 12.0 0.00 0.00 0.00 82 1017.3
20260507190134 64 105 9.0 12.0 0.00 0.00 0.00 83 1017.2
20260507185651 64 61 3.0 8.0 0.00 0.00 0.00 84 1017.4
20260507185147 64 89 5.0 8.0 0.00 0.00 0.00 83 1017.6
20260507184647 64 37 3.0 9.0 0.00 0.00 0.00 83 1017.8
20260507184156 64 82 2.0 9.0 0.00 0.00 0.00 83 1017.9
20260507183652 64 344 4.0 9.0 0.00 0.00 0.00 82 1017.9
20260507183152 64 24 3.0 10.0 0.00 0.00 0.00 82 1018.2
20260507182647 64 51 5.0 10.0 0.00 0.00 0.00 82 1018.4